Погода в Ближнеосиновском

Россия / Волгоградская область     48°31′44″N   43°02′21″E
темп.,
°C
ветер,
м/с
пор.,
м/с
влажн.,
%
обл.,
%
осадки,
мм/ч
давл.,
гПа
погр.,
м
16 мая, вс
вс1600:00+18юв4747100 0.0 101393
03:00+17юв4847100 0.0 1013122
06:00+16юв3105742 0.0 1013196
09:00+23юв584035 0.0 1013389
12:00+28юв682612 0.0 10131299
15:00+30юв6102412 0.0 10112083
18:00+27в463840 0.0 1009105
21:00+21юв51645100 0.0 1010315
17 мая, пн
пн1700:00+19вюв4134729 0.0 1010214
03:00+17в513505 0.0 1010212
06:00+17в6144895 0.0 1010256
09:00+24вюв81536100 0.0 1010711
12:00+29юв9142594 0.0 10102137
15:00+30юв81226100 0.0 10082437
18:00+26вюв4113899 0.0 1008214
21:00+20вюв47420 0.0 100979
18 мая, вт
вт1800:00+18вюв484051 0.0 100990
03:00+17всв474083 0.0 100884
06:00+17в3547100 0.0 1008100
09:00+22вюв4536100 0.0 1008358
12:00+27юв462993 0.0 10071031
15:00+28юз5629100 0.0 1006885
18:00+25юз3544100 0.0 1007168
21:00+18зсз6107898 0.0 1009317
19 мая, ср
ср1900:00+18з5979100 0.0 1009335
03:00+17зсз3784100 0.2 1009262
06:00+16сз3883100 1.3 1009326
09:00+20зсз3461100 1.4 1010632
12:00+23зюз5550100 0.0 10101673
15:00+21юз8860100 1.3 10111187
18:00+15юз61080100 0.3 1012589
21:00+16ююз61180100 0.4 1012471
20 мая, чт
чт2000:00+14юз51184100 0.0 1013484
03:00+12юз5119276 0.0 1014416
06:00+13юз6118997 0.0 1014619
09:00+16зюз7972100 0.0 10151082
12:00+19зюз71157100 0.2 10161788
15:00+20з8115042 0.2 10161980
18:00+20зсз355447 0.0 1017984
21:00+15св22700 0.0 101813